Terminal Aerodrome Forecast
Issued by NWS

Home | Current Version | Previous Version | Text Only | Print | Product List | Glossary On
Versions: 1 2 3 4 5 6 7 8 9 10 11 12
000
FTUS46 KSGX 201100
TAFTRM
TAF
KTRM 201128Z 2012/2112 VRB04KT P6SM SKC
     FM202000 14009KT P6SM SKC
     FM210200 32007KT P6SM SKC=

USA.gov is the U.S. government's official web portal to all federal, state and local government web resources and services.